TimeCDT,TemperatureF,Dew PointF,Humidity,Sea Level PressureIn,VisibilityMPH,Wind Direction,Wind SpeedMPH,Gust SpeedMPH,PrecipitationIn,Events,Conditions,WindDirDegrees,DateUTC
12:15 AM,51.8,46.4,82,29.46,10.0,ESE,3.5,-,N/A,,Clear,120,2012-10-17 05:15:00
12:35 AM,50.0,46.4,87,29.45,10.0,East,3.5,-,N/A,,Clear,90,2012-10-17 05:35:00
12:55 AM,51.8,46.4,82,29.45,10.0,East,3.5,-,N/A,,Clear,80,2012-10-17 05:55:00
1:15 AM,51.8,46.4,82,29.44,10.0,Calm,Calm,-,N/A,,Clear,0,2012-10-17 06:15:00
1:35 AM,50.0,46.4,87,29.43,7.0,Calm,Calm,-,N/A,,Clear,0,2012-10-17 06:35:00
1:55 AM,50.0,46.4,87,29.43,7.0,Calm,Calm,-,N/A,,Clear,0,2012-10-17 06:55:00
2:15 AM,50.0,46.4,87,29.44,10.0,Calm,Calm,-,N/A,,Clear,0,2012-10-17 07:15:00
2:35 AM,46.4,44.6,93,29.43,5.0,Calm,Calm,-,N/A,,Clear,0,2012-10-17 07:35:00
2:55 AM,46.4,42.8,87,29.42,4.0,Calm,Calm,-,N/A,,Clear,0,2012-10-17 07:55:00
3:15 AM,44.6,42.8,93,29.42,4.0,Calm,Calm,-,N/A,,Clear,0,2012-10-17 08:15:00
3:35 AM,44.6,42.8,93,29.41,4.0,Calm,Calm,-,N/A,,Clear,0,2012-10-17 08:35:00
3:55 AM,44.6,42.8,93,29.41,2.0,Calm,Calm,-,N/A,,Clear,0,2012-10-17 08:55:00
4:15 AM,44.6,42.8,93,29.41,2.0,Calm,Calm,-,N/A,,Clear,0,2012-10-17 09:15:00
4:35 AM,44.6,41.0,87,29.41,4.0,North,3.5,-,N/A,,Clear,350,2012-10-17 09:35:00
4:55 AM,42.8,41.0,93,29.42,3.0,Calm,Calm,-,N/A,,Clear,0,2012-10-17 09:55:00
5:15 AM,42.8,41.0,93,29.43,4.0,Calm,Calm,-,N/A,,Clear,0,2012-10-17 10:15:00
5:35 AM,42.8,41.0,93,29.42,1.8,Calm,Calm,-,N/A,,Mist,0,2012-10-17 10:35:00
5:55 AM,42.8,41.0,93,29.42,1.8,Calm,Calm,-,N/A,,Mist,0,2012-10-17 10:55:00
6:15 AM,41.0,39.2,93,29.42,1.8,Calm,Calm,-,N/A,,Mist,0,2012-10-17 11:15:00
6:35 AM,41.0,39.2,93,29.42,4.0,Calm,Calm,-,N/A,,Clear,0,2012-10-17 11:35:00
6:55 AM,41.0,37.4,87,29.41,1.2,Calm,Calm,-,N/A,,Mostly Cloudy,0,2012-10-17 11:55:00
7:15 AM,41.0,39.2,93,29.40,0.2,Calm,Calm,-,N/A,Fog,Fog,0,2012-10-17 12:15:00
7:35 AM,41.0,39.2,93,29.40,0.2,Calm,Calm,-,N/A,Fog,Fog,0,2012-10-17 12:35:00
7:55 AM,42.8,41.0,93,29.41,0.2,Calm,Calm,-,N/A,Fog,Fog,0,2012-10-17 12:55:00
8:15 AM,44.6,42.8,93,29.40,0.5,Calm,Calm,-,N/A,Fog,Fog,0,2012-10-17 13:15:00
8:35 AM,44.6,44.6,100,29.40,0.8,Calm,Calm,-,N/A,,Overcast,0,2012-10-17 13:35:00
8:55 AM,46.4,44.6,93,29.40,1.8,Calm,Calm,-,N/A,,Scattered Clouds,0,2012-10-17 13:55:00
9:15 AM,50.0,46.4,87,29.39,3.0,Calm,Calm,-,N/A,,Clear,0,2012-10-17 14:15:00
9:35 AM,50.0,50.0,100,29.40,7.0,Calm,Calm,-,N/A,,Clear,0,2012-10-17 14:35:00
9:55 AM,51.8,50.0,94,29.39,10.0,Calm,Calm,-,N/A,,Clear,0,2012-10-17 14:55:00
10:15 AM,55.4,53.6,94,29.38,10.0,SSE,6.9,-,N/A,,Clear,160,2012-10-17 15:15:00
10:35 AM,60.8,50.0,68,29.37,10.0,South,9.2,-,N/A,,Clear,170,2012-10-17 15:35:00
10:55 AM,62.6,50.0,63,29.37,10.0,SSE,8.1,-,N/A,,Clear,150,2012-10-17 15:55:00
11:15 AM,62.6,48.2,59,29.37,10.0,SSE,9.2,-,N/A,,Clear,150,2012-10-17 16:15:00
11:35 AM,64.4,50.0,59,29.36,10.0,SSE,10.4,-,N/A,,Clear,150,2012-10-17 16:35:00
11:55 AM,68.0,50.0,52,29.36,10.0,SE,11.5,-,N/A,,Clear,140,2012-10-17 16:55:00
12:15 PM,68.0,50.0,52,29.35,10.0,SE,16.1,-,N/A,,Clear,140,2012-10-17 17:15:00
12:35 PM,68.0,50.0,52,29.34,10.0,SSE,12.7,18.4,N/A,,Clear,150,2012-10-17 17:35:00
12:55 PM,69.8,50.0,49,29.34,10.0,South,12.7,20.7,N/A,,Clear,180,2012-10-17 17:55:00
1:15 PM,68.0,48.2,49,29.33,10.0,South,13.8,23.0,N/A,,Clear,170,2012-10-17 18:15:00
1:35 PM,68.0,50.0,52,29.33,10.0,South,10.4,-,N/A,,Clear,170,2012-10-17 18:35:00
1:55 PM,68.0,50.0,52,29.33,10.0,SSE,8.1,-,N/A,,Clear,160,2012-10-17 18:55:00
2:15 PM,68.0,50.0,52,29.33,10.0,SSE,11.5,-,N/A,,Clear,160,2012-10-17 19:15:00
2:35 PM,68.0,50.0,52,29.34,10.0,South,10.4,17.3,N/A,,Scattered Clouds,180,2012-10-17 19:35:00
2:55 PM,68.0,50.0,52,29.34,10.0,South,11.5,-,N/A,,Mostly Cloudy,190,2012-10-17 19:55:00
3:15 PM,68.0,50.0,52,29.33,10.0,SSW,13.8,-,N/A,,Overcast,200,2012-10-17 20:15:00
3:35 PM,64.4,50.0,59,29.33,10.0,South,12.7,16.1,N/A,,Overcast,180,2012-10-17 20:35:00
3:55 PM,64.4,50.0,59,29.32,10.0,South,9.2,-,N/A,Rain,Light Rain,190,2012-10-17 20:55:00
4:15 PM,62.6,51.8,68,29.32,10.0,South,5.8,-,N/A,Rain,Light Rain,190,2012-10-17 21:15:00
4:35 PM,60.8,53.6,77,29.32,7.0,South,5.8,-,N/A,Rain,Rain,180,2012-10-17 21:35:00
4:55 PM,60.8,53.6,77,29.31,10.0,South,8.1,-,0.01,,Overcast,190,2012-10-17 21:55:00
5:15 PM,59.0,53.6,82,29.32,10.0,South,6.9,-,N/A,,Overcast,170,2012-10-17 22:15:00
5:35 PM,59.0,53.6,82,29.32,10.0,South,5.8,-,N/A,Rain,Light Rain,170,2012-10-17 22:35:00
5:55 PM,59.0,53.6,82,29.32,10.0,SSE,5.8,-,N/A,Rain,Rain,150,2012-10-17 22:55:00
6:15 PM,59.0,53.6,82,29.32,10.0,SE,4.6,-,0.01,Rain,Light Rain,140,2012-10-17 23:15:00
6:35 PM,59.0,53.6,82,29.33,7.0,SSE,5.8,-,0.04,Rain,Light Rain,150,2012-10-17 23:35:00
6:55 PM,59.0,55.4,88,29.32,7.0,SSE,5.8,-,0.05,Rain,Light Rain,150,2012-10-17 23:55:00
7:15 PM,59.0,55.4,88,29.32,7.0,SSE,4.6,-,N/A,,Light Drizzle,150,2012-10-18 00:15:00
7:35 PM,57.2,55.4,94,29.31,5.0,SSE,4.6,-,N/A,,Light Drizzle,150,2012-10-18 00:35:00
7:55 PM,57.2,55.4,94,29.30,5.0,SE,3.5,-,0.01,Rain,Light Rain,140,2012-10-18 00:55:00
8:15 PM,57.2,55.4,94,29.30,4.0,SSE,3.5,-,N/A,,Light Drizzle,150,2012-10-18 01:15:00
8:35 PM,57.2,55.4,94,29.29,5.0,SSE,5.8,-,N/A,Rain,Light Rain,160,2012-10-18 01:35:00
8:55 PM,57.2,55.4,94,29.29,4.0,SSE,4.6,-,N/A,,Light Drizzle,160,2012-10-18 01:55:00
9:15 PM,57.2,55.4,94,29.28,3.0,SSE,4.6,-,0.01,,Drizzle,160,2012-10-18 02:15:00
9:35 PM,57.2,55.4,94,29.27,2.5,SSW,3.5,-,0.02,Rain,Light Rain,200,2012-10-18 02:35:00
9:55 PM,55.4,53.6,94,29.28,5.0,West,9.2,-,0.06,Rain,Light Rain,280,2012-10-18 02:55:00
10:15 PM,53.6,51.8,94,29.28,5.0,West,10.4,-,0.02,Rain,Light Rain,260,2012-10-18 03:15:00
10:35 PM,53.6,51.8,94,29.26,5.0,WNW,9.2,-,0.06,Rain,Rain,290,2012-10-18 03:35:00
10:55 PM,53.6,51.8,94,29.26,7.0,West,6.9,-,0.07,Rain,Rain,280,2012-10-18 03:55:00
11:15 PM,53.6,51.8,94,29.25,7.0,WNW,4.6,-,0.02,Rain,Light Rain,290,2012-10-18 04:15:00
11:35 PM,53.6,51.8,94,29.24,7.0,NW,4.6,-,0.05,Rain,Rain,310,2012-10-18 04:35:00
11:55 PM,53.6,51.8,94,29.22,7.0,Calm,Calm,-,0.07,Rain,Light Rain,0,2012-10-18 04:55:00